FW6663 Weather Reports


time (UTC)temp
F
wind
direction
speed
knots
gust
knots
rain 1hr
in
rain 24hr
in
rain mn
in
humidity
%
barometer
mb
20260507074536 52 142 0.0 0.0 0.00 0.00 0.00 83 1015.8
20260507073031 51 0 0.0 0.0 0.00 0.00 0.00 85 1015.8
20260507071528 50 0 0.0 0.9 0.00 0.00 0.00 89 1015.7
20260507070030 49 0 0.0 0.9 0.00 0.00 0.00 90 1015.7
20260507064529 48 0 0.0 0.9 0.00 0.00 0.00 91 1015.6
20260507063030 48 0 0.0 0.0 0.00 0.00 0.00 92 1015.5
20260507061534 47 0 0.0 0.0 0.00 0.00 0.00 92 1015.2
20260507060032 47 0 0.0 0.0 0.00 0.00 0.00 93 1015.3
20260507054530 47 0 0.0 0.0 0.00 0.00 0.00 93 1015.0
20260507053028 46 0 0.0 0.0 0.00 0.00 0.00 93 1014.9
20260507051530 46 0 0.0 0.0 0.00 0.00 0.00 93 1014.9
20260507050034 46 0 0.0 0.0 0.00 0.00 0.00 93 1014.6
20260507044542 46 0 0.0 0.0 0.00 0.00 0.00 93 1014.4
20260507043034 45 0 0.0 0.0 0.00 0.00 0.00 92 1014.4
20260507041531 45 0 0.0 0.0 0.00 0.00 0.00 92 1014.4
20260507040030 45 0 0.0 0.0 0.00 0.00 0.00 92 1014.2
20260507034532 45 0 0.0 0.0 0.00 0.00 0.00 92 1014.2
20260507033029 45 0 0.0 0.0 0.00 0.00 0.00 92 1014.2
20260507031529 45 0 0.0 0.0 0.00 0.00 0.00 92 1014.1
20260507030028 45 0 0.0 0.0 0.00 0.00 0.00 92 1014.0
20260507024531 46 0 0.0 0.0 0.00 0.00 0.00 92 1014.0
20260507023028 46 0 0.0 0.0 0.00 0.00 0.00 92 1014.0
20260507021527 46 0 0.0 0.0 0.00 0.00 0.00 92 1013.9
20260507020032 46 0 0.0 0.0 0.00 0.00 0.00 92 1013.8
20260507014529 46 0 0.0 0.0 0.00 0.00 0.00 92 1013.6
20260507013032 46 0 0.0 0.0 0.00 0.00 0.00 92 1013.6
20260507011531 46 0 0.0 0.0 0.00 0.00 0.00 92 1013.5
20260507010030 46 0 0.0 0.0 0.00 0.00 0.00 92 1013.6
20260507004528 46 0 0.0 0.0 0.00 0.00 0.00 92 1013.4
20260507003029 46 0 0.0 0.0 0.00 0.00 0.00 92 1013.4
20260507001528 46 0 0.0 0.0 0.00 0.00 0.00 92 1013.3
20260507000030 45 0 0.0 0.0 0.00 0.00 0.00 92 1013.2
20260506234528 45 0 0.0 0.0 0.00 0.00 0.00 92 1013.1
20260506233030 45 0 0.0 0.0 0.00 0.00 0.00 92 1013.1
20260506231529 45 0 0.0 0.0 0.00 0.00 0.00 92 1013.0
20260506230029 44 0 0.0 0.0 0.00 0.00 0.00 91 1012.9
20260506224533 44 0 0.0 0.0 0.00 0.00 0.00 92 1012.8
20260506223030 44 0 0.0 0.0 0.00 0.00 0.00 91 1012.7
20260506221531 44 0 0.0 0.0 0.00 0.00 0.00 91 1012.5
20260506220035 44 0 0.0 0.0 0.00 0.00 0.00 90 1012.6
20260506214529 44 0 0.0 0.0 0.00 0.00 0.00 89 1012.6
20260506213028 45 0 0.0 0.0 0.00 0.00 0.00 89 1012.5
20260506211529 46 0 0.0 0.0 0.00 0.00 0.00 88 1012.4
20260506210029 47 0 0.0 0.0 0.00 0.00 0.00 86 1012.2
20260506204530 48 0 0.0 0.9 0.00 0.00 0.00 85 1012.1
20260506203030 48 0 0.0 0.0 0.00 0.00 0.00 85 1012.1
20260506201541 49 0 0.0 0.0 0.00 0.00 0.00 84 1011.9
20260506200029 49 0 0.0 0.9 0.00 0.00 0.00 83 1011.8
20260506194529 50 144 0.0 0.9 0.00 0.00 0.00 85 1011.6
20260506193030 50 0 0.0 0.9 0.00 0.00 0.00 85 1011.6
20260506191532 50 134 0.0 2.6 0.00 0.00 0.00 87 1011.3
20260506190032 51 0 0.0 0.9 0.00 0.00 0.00 88 1011.0
20260506184528 51 129 0.0 1.7 0.00 0.00 0.00 87 1010.8
20260506183030 52 129 0.9 1.7 0.00 0.00 0.00 87 1010.6
20260506181530 52 129 0.9 0.9 0.00 0.00 0.00 87 1010.5
20260506180031 52 129 0.9 1.7 0.00 0.00 0.00 86 1010.2
20260506174529 52 129 0.9 0.9 0.00 0.00 0.00 87 1010.2
20260506173028 52 129 0.9 0.9 0.00 0.00 0.00 86 1010.0
20260506171542 52 129 0.9 1.7 0.00 0.00 0.00 85 1009.8
20260506170032 52 129 0.9 1.7 0.00 0.00 0.00 85 1009.7
20260506164532 52 129 1.7 2.6 0.00 0.00 0.00 85 1009.6
20260506163038 53 0 0.9 2.6 0.00 0.00 0.00 87 1009.6
20260506161527 52 0 0.0 0.0 0.00 0.00 0.00 89 1009.6
20260506160034 52 0 0.0 0.0 0.00 0.00 0.00 89 1009.7
20260506154537 52 127 0.0 0.0 0.00 0.00 0.00 89 1009.5
20260506153027 52 0 0.0 0.9 0.00 0.00 0.00 89 1009.6
20260506151530 53 0 0.0 0.9 0.00 0.00 0.00 89 1009.6
20260506150031 53 127 0.0 0.9 0.00 0.00 0.00 90 1009.4
20260506144527 54 0 0.0 0.9 0.00 0.00 0.00 90 1009.4
20260506143028 54 125 0.0 0.9 0.00 0.00 0.00 91 1009.4
20260506141528 53 120 0.0 0.9 0.00 0.00 0.00 91 1009.3
20260506140034 53 120 0.0 2.6 0.00 0.00 0.00 91 1009.5
20260506134527 52 0 0.0 0.0 0.00 0.00 0.00 93 1009.6
20260506133029 52 0 0.0 0.0 0.00 0.00 0.00 93 1009.6
20260506131532 52 0 0.0 0.0 0.00 0.00 0.00 94 1009.5
20260506130028 51 0 0.0 1.7 0.00 0.00 0.00 94 1009.5
20260506124532 51 127 1.7 2.6 0.00 0.00 0.00 94 1009.4
20260506123032 51 132 0.9 3.5 0.00 0.00 0.00 94 1009.3
20260506121531 51 128 1.7 2.6 0.00 0.00 0.00 94 1009.3
20260506120033 51 132 1.7 3.5 0.00 0.00 0.00 94 1009.2
20260506114530 51 141 0.9 2.6 0.00 0.00 0.00 95 1009.1
20260506113031 51 132 1.7 2.6 0.00 0.00 0.00 95 1009.2
20260506111531 50 130 0.9 2.6 0.00 0.00 0.00 95 1009.3
20260506110030 50 129 0.9 2.6 0.00 0.00 0.00 95 1009.2
20260506104528 50 0 0.0 1.7 0.00 0.00 0.00 95 1009.3
20260506103032 49 129 0.0 2.6 0.00 0.00 0.00 95 1009.4
20260506101528 48 125 0.9 2.6 0.00 0.00 0.00 95 1009.3
20260506100029 48 136 0.9 2.6 0.00 0.00 0.00 95 1009.1
20260506094531 48 132 0.9 1.7 0.00 0.00 0.00 95 1009.1
20260506093052 48 127 0.9 3.5 0.00 0.00 0.00 95 1008.9
20260506091528 47 125 0.9 3.5 0.00 0.00 0.00 95 1008.8
20260506090028 47 131 0.9 3.5 0.00 0.00 0.00 95 1008.6
20260506084528 47 133 0.9 3.5 0.00 0.00 0.00 95 1008.6
20260506083032 47 131 0.9 1.7 0.00 0.00 0.00 95 1008.5
20260506081531 47 128 0.9 2.6 0.00 0.00 0.00 95 1008.3